< < Back
Terminal Aerodrome Forecast


Current Version              Previous Versions:   1  2  3  4  5  6  7  8  9  

Terminal Aerodrome Forecast

119
FTUS42 KTAE 271727
TAFVLD
TAF
KVLD 271727Z 2718/2818 30010G16KT P6SM OVC015
     FM272100 30010KT P6SM SCT025
     FM280000 32005KT P6SM SKC=

Latest METAR

380
SAUS70 KWBC 280200
MTRVLD
METAR KVLD 280153Z 00000KT 10SM CLR 09/08 A2994 RMK AO2 SLP147
T00890078


USA.gov is the U.S. government's official web portal to all federal, state and local government web resources and services.